Torna al catalogo

DELTA 1 DEB

AttivoPO
NORAD 21469·DEBRIS·🇺🇸 United States

Lanciato Jun 12, 1975 da Vandenberg Space Force Base

Loading…

Prossimi Passaggi (prossime 24 ore)

TLE

AggiornatoSource: Space-Track

Epoca: Sep 14, 2026, 03:51 UTC

1 21469U 75052FD  26257.16057626  .00000281  00000-0  11204-2 0  9997
2 21469  99.6720 135.3840 0364546 125.1019  25.8649 12.75242059642551

Traccia DELTA 1 DEB in tempo reale con AllMySat

Download on the App Store